EW6393 Weather Reports


Display with metric or nautical units.
time (UTC)temp
F
wind
direction
speed
MPH
gust
MPH
rain 1hr
in
rain 24hr
in
rain mn
in
humidity
%
barometer
mb
20191016094316 47 91 0.0 1.0 0.00 0.00 0.00 34 1022.8
20191016093818 47 108 0.0 0.0 0.00 0.00 0.00 34 1022.9
20191016093315 48 87 0.0 0.0 0.00 0.00 0.00 33 1022.9
20191016092812 48 87 0.0 0.0 0.00 0.00 0.00 32 1022.9
20191016092329 48 88 0.0 0.0 0.00 0.00 0.00 32 1022.9
20191016091825 48 89 0.0 0.0 0.00 0.00 0.00 32 1022.9
20191016091322 48 89 0.0 0.0 0.00 0.00 0.00 32 1023.0
20191016090819 48 89 0.0 0.0 0.00 0.00 0.00 33 1023.0
20191016090320 48 89 0.0 0.0 0.00 0.00 0.00 33 1023.0
20191016085816 48 89 0.0 0.0 0.00 0.00 0.00 32 1023.0
20191016085313 48 89 0.0 0.0 0.00 0.00 0.00 32 1023.0
20191016084810 48 89 0.0 0.0 0.00 0.00 0.00 32 1023.1
20191016084327 49 89 0.0 0.0 0.00 0.00 0.00 31 1023.1
20191016083825 49 87 0.0 0.0 0.00 0.00 0.00 30 1023.0
20191016083321 49 87 0.0 0.0 0.00 0.00 0.00 31 1023.0
20191016082822 49 87 0.0 0.0 0.00 0.00 0.00 32 1022.9
20191016082320 49 88 0.0 0.0 0.00 0.00 0.00 31 1022.9
20191016081816 49 89 0.0 0.0 0.00 0.00 0.00 31 1022.8
20191016081313 49 89 0.0 0.0 0.00 0.00 0.00 31 1022.8
20191016080810 49 99 0.0 0.0 0.00 0.00 0.00 30 1022.8
20191016080327 49 99 0.0 0.0 0.00 0.00 0.00 30 1022.8
20191016075824 49 98 0.0 0.0 0.00 0.00 0.00 30 1022.9
20191016075325 50 98 0.0 0.0 0.00 0.00 0.00 30 1022.9
20191016074822 51 99 0.0 0.0 0.00 0.00 0.00 28 1022.8
20191016074319 52 99 0.0 0.0 0.00 0.00 0.00 27 1022.8
20191016073816 52 98 0.0 0.0 0.00 0.00 0.00 26 1022.8
20191016073313 52 108 0.0 0.0 0.00 0.00 0.00 27 1022.8
20191016072810 52 107 0.0 0.0 0.00 0.00 0.00 27 1022.8
20191016072311 51 108 0.0 0.0 0.00 0.00 0.00 27 1022.7
20191016071828 52 108 0.0 0.0 0.00 0.00 0.00 28 1022.7
20191016071325 53 108 0.0 2.0 0.00 0.00 0.00 27 1022.6
20191016070822 53 109 1.0 2.0 0.00 0.00 0.00 26 1022.7
20191016070319 53 86 0.0 0.0 0.00 0.00 0.00 24 1022.8
20191016065815 53 86 0.0 0.0 0.00 0.00 0.00 25 1022.8
20191016065312 53 86 0.0 1.0 0.00 0.00 0.00 25 1022.9
20191016064813 52 86 0.0 1.0 0.00 0.00 0.00 26 1022.9
20191016064310 52 86 1.0 2.0 0.00 0.00 0.00 26 1022.9
20191016063827 52 86 2.0 2.0 0.00 0.00 0.00 27 1022.9
20191016063324 52 111 1.0 2.0 0.00 0.00 0.00 27 1023.0
20191016062821 52 111 1.0 2.0 0.00 0.00 0.00 26 1023.0
20191016062318 52 82 0.0 1.0 0.00 0.00 0.00 27 1023.1
20191016061815 51 77 0.0 0.0 0.00 0.00 0.00 27 1023.2
20191016061316 52 78 0.0 0.0 0.00 0.00 0.00 28 1023.2
20191016060813 52 77 0.0 0.0 0.00 0.00 0.00 28 1023.2
20191016060310 52 77 0.0 0.0 0.00 0.00 0.00 28 1023.4
20191016055827 52 78 0.0 0.0 0.00 0.00 0.00 27 1023.4
20191016055324 52 77 0.0 0.0 0.00 0.00 0.00 27 1023.3
20191016054819 51 80 0.0 0.0 0.00 0.00 0.00 27 1023.4
20191016054316 51 80 0.0 0.0 0.00 0.00 0.00 28 1023.4
20191016053814 51 80 0.0 0.0 0.00 0.00 0.00 28 1023.4
20191016053311 51 80 0.0 0.0 0.00 0.00 0.00 28 1023.4
20191016052828 52 93 0.0 0.0 0.00 0.00 0.00 27 1023.4
20191016052325 52 93 0.0 0.0 0.00 0.00 0.00 27 1023.4
20191016051822 52 99 0.0 0.0 0.00 0.00 0.00 26 1023.5
20191016051319 52 99 0.0 0.0 0.00 0.00 0.00 26 1023.5
20191016050816 52 100 0.0 0.0 0.00 0.00 0.00 26 1023.5
20191016050317 52 101 0.0 0.0 0.00 0.00 0.00 27 1023.5
20191016045814 52 105 0.0 1.0 0.00 0.00 0.00 27 1023.5
20191016045311 52 104 0.0 1.0 0.00 0.00 0.00 27 1023.5
20191016044828 53 105 1.0 2.0 0.00 0.00 0.00 26 1023.5
20191016044325 53 101 1.0 2.0 0.00 0.00 0.00 25 1023.6
20191016043822 53 70 1.0 1.0 0.00 0.00 0.00 25 1023.6
20191016043319 53 103 0.0 0.0 0.00 0.00 0.00 25 1023.6
20191016042820 52 103 0.0 0.0 0.00 0.00 0.00 26 1023.5
20191016042317 52 103 0.0 0.0 0.00 0.00 0.00 25 1023.6
20191016041814 52 103 0.0 0.0 0.00 0.00 0.00 26 1023.7
20191016041310 53 103 0.0 0.0 0.00 0.00 0.00 26 1023.8
20191016040827 53 103 0.0 0.0 0.00 0.00 0.00 24 1023.7
20191016040325 53 103 0.0 1.0 0.00 0.00 0.00 24 1023.7
20191016035820 54 105 1.0 2.0 0.00 0.00 0.00 24 1023.7
20191016035321 54 93 1.0 2.0 0.00 0.00 0.00 24 1023.8
20191016034818 54 103 0.0 1.0 0.00 0.00 0.00 24 1023.9
20191016034315 54 90 1.0 2.0 0.00 0.00 0.00 24 1023.8
20191016033812 54 104 0.0 2.0 0.00 0.00 0.00 24 1023.8
20191016033310 54 105 1.0 2.0 0.00 0.00 0.00 23 1023.8
20191016032826 54 77 1.0 2.0 0.00 0.00 0.00 23 1023.8
20191016032323 54 107 0.0 0.0 0.00 0.00 0.00 24 1023.8
20191016031825 53 107 0.0 0.0 0.00 0.00 0.00 24 1023.8
20191016031321 53 108 0.0 0.0 0.00 0.00 0.00 25 1023.8
20191016030818 53 108 0.0 0.0 0.00 0.00 0.00 24 1023.8
20191016030315 53 108 0.0 0.0 0.00 0.00 0.00 24 1023.9
20191016025812 53 108 0.0 0.0 0.00 0.00 0.00 25 1024.0
20191016025310 53 107 0.0 0.0 0.00 0.00 0.00 26 1024.0
20191016024826 53 108 0.0 0.0 0.00 0.00 0.00 26 1023.9
20191016024327 53 107 0.0 1.0 0.00 0.00 0.00 27 1023.9
20191016023825 53 107 0.0 1.0 0.00 0.00 0.00 26 1023.9
20191016023321 53 107 0.0 0.0 0.00 0.00 0.00 26 1023.9
20191016022818 54 107 0.0 0.0 0.00 0.00 0.00 26 1023.9
20191016022316 54 107 0.0 0.0 0.00 0.00 0.00 26 1023.9
20191016021812 54 107 0.0 0.0 0.00 0.00 0.00 26 1023.9
20191016021310 54 108 0.0 0.0 0.00 0.00 0.00 25 1023.8
20191016020810 55 107 0.0 0.0 0.00 0.00 0.00 24 1023.7
20191016020327 55 108 0.0 0.0 0.00 0.00 0.00 23 1023.5
20191016015823 56 108 0.0 0.0 0.00 0.00 0.00 21 1023.4
20191016015320 56 91 0.0 1.0 0.00 0.00 0.00 21 1023.3
20191016014817 57 91 0.0 1.0 0.00 0.00 0.00 20 1023.2
20191016014314 57 91 0.0 0.0 0.00 0.00 0.00 20 1023.1
20191016013811 57 91 0.0 0.0 0.00 0.00 0.00 20 1023.1
20191016013312 58 90 0.0 0.0 0.00 0.00 0.00 20 1023.0
20191016012809 58 91 0.0 0.0 0.00 0.00 0.00 20 1023.1
20191016012326 58 90 0.0 0.0 0.00 0.00 0.00 20 1023.2
20191016011823 58 91 0.0 0.0 0.00 0.00 0.00 21 1023.2
20191016011320 59 99 0.0 0.0 0.00 0.00 0.00 21 1023.2
20191016010817 59 98 0.0 0.0 0.00 0.00 0.00 20 1023.3
20191016010314 60 99 0.0 0.0 0.00 0.00 0.00 20 1023.3
20191016005815 60 98 0.0 0.0 0.00 0.00 0.00 19 1023.3
20191016005312 61 93 0.0 0.0 0.00 0.00 0.00 19 1023.3
20191016004809 62 277 0.0 0.0 0.00 0.00 0.00 20 1023.3
20191016004326 63 277 0.0 0.0 0.00 0.00 0.00 19 1023.2
20191016003823 64 277 0.0 0.0 0.00 0.00 0.00 18 1023.2
20191016003320 65 277 0.0 0.0 0.00 0.00 0.00 17 1023.2
20191016002817 66 277 0.0 2.0 0.00 0.00 0.00 16 1023.2
20191016002318 66 277 0.0 3.0 0.00 0.00 0.00 15 1023.2
20191016001815 66 289 0.0 3.0 0.00 0.00 0.00 15 1023.2
20191016001312 66 302 0.0 3.0 0.00 0.00 0.00 15 1023.2
20191016000809 66 294 1.0 3.0 0.00 0.00 0.00 14 1023.1
20191016000326 67 271 1.0 4.0 0.00 0.00 0.00 14 1023.1
20191015235822 67 290 1.0 4.0 0.00 0.00 0.00 14 1023.1
20191015235319 67 274 0.0 2.0 0.00 0.00 0.00 15 1023.2
20191015234820 68 277 1.0 3.0 0.00 0.00 0.00 14 1023.2
20191015234317 68 304 1.0 3.0 0.00 0.00 0.00 13 1023.1
20191015233814 69 281 1.0 4.0 0.00 0.00 0.00 13 1023.1
20191015233311 70 257 0.0 2.0 0.00 0.00 0.00 13 1023.1
20191015232828 70 281 0.0 5.0 0.00 0.00 0.00 13 1023.1
20191015232325 69 280 1.0 5.0 0.00 0.00 0.00 13 1023.0
20191015231822 69 281 1.0 5.0 0.00 0.00 0.00 13 1023.1
20191015231323 69 285 1.0 5.0 0.00 0.00 0.00 14 1023.1
20191015230820 70 294 1.0 5.0 0.00 0.00 0.00 14 1023.1
20191015230317 70 266 1.0 5.0 0.00 0.00 0.00 13 1023.1
20191015225814 70 281 2.0 5.0 0.00 0.00 0.00 13 1023.0
20191015225311 70 317 0.0 3.0 0.00 0.00 0.00 14 1023.0
20191015224828 70 300 1.0 4.0 0.00 0.00 0.00 14 1023.1
20191015224325 70 285 1.0 4.0 0.00 0.00 0.00 13 1023.1
20191015223826 70 262 1.0 4.0 0.00 0.00 0.00 13 1023.1
20191015223323 70 257 1.0 3.0 0.00 0.00 0.00 14 1023.1
20191015222820 70 229 0.0 3.0 0.00 0.00 0.00 14 1023.1
20191015222317 70 265 1.0 4.0 0.00 0.00 0.00 13 1023.2
20191015221814 70 262 1.0 4.0 0.00 0.00 0.00 14 1023.2
20191015221311 70 250 0.0 4.0 0.00 0.00 0.00 14 1023.2
20191015220812 69 319 1.0 4.0 0.00 0.00 0.00 13 1023.3
20191015220329 70 299 2.0 5.0 0.00 0.00 0.00 13 1023.2
20191015215825 70 256 1.0 5.0 0.00 0.00 0.00 13 1023.2
20191015215322 70 290 1.0 5.0 0.00 0.00 0.00 13 1023.2
20191015214819 70 266 1.0 4.0 0.00 0.00 0.00 14 1023.2
20191015214316 70 302 1.0 4.0 0.00 0.00 0.00 15 1023.2
20191015213813 69 297 1.0 6.0 0.00 0.00 0.00 14 1023.2
20191015213314 69 257 2.0 6.0 0.00 0.00 0.00 13 1023.3
20191015212811 69 243 1.0 6.0 0.00 0.00 0.00 15 1023.2
20191015212327 69 255 1.0 6.0 0.00 0.00 0.00 14 1023.3
20191015211825 70 245 1.0 5.0 0.00 0.00 0.00 13 1023.3
20191015211321 70 207 1.0 5.0 0.00 0.00 0.00 14 1023.3
20191015210819 70 255 0.0 3.0 0.00 0.00 0.00 14 1023.4
20191015210315 70 241 1.0 4.0 0.00 0.00 0.00 14 1023.4
20191015205816 70 262 2.0 4.0 0.00 0.00 0.00 13 1023.4
20191015205314 69 278 1.0 2.0 0.00 0.00 0.00 15 1023.5
20191015204811 69 32 0.0 4.0 0.00 0.00 0.00 15 1023.6
20191015204328 69 293 3.0 4.0 0.00 0.00 0.00 14 1023.6
20191015203825 69 302 0.0 3.0 0.00 0.00 0.00 16 1023.6
20191015203321 68 125 1.0 3.0 0.00 0.00 0.00 15 1023.7
20191015202818 68 319 1.0 3.0 0.00 0.00 0.00 16 1023.7
20191015202320 68 285 1.0 3.0 0.00 0.00 0.00 15 1023.8
20191015201814 69 289 2.0 3.0 0.00 0.00 0.00 16 1023.8
20191015201311 68 312 1.0 3.0 0.00 0.00 0.00 16 1023.9
20191015200827 68 169 0.0 2.0 0.00 0.00 0.00 18 1023.9
20191015200325 68 281 1.0 4.0 0.00 0.00 0.00 17 1024.0
20191015195820 67 273 2.0 4.0 0.00 0.00 0.00 16 1024.0
20191015195317 67 299 0.0 5.0 0.00 0.00 0.00 17 1024.1
20191015194818 67 291 2.0 5.0 0.00 0.00 0.00 16 1024.1
20191015194315 67 332 0.0 2.0 0.00 0.00 0.00 16 1024.1
20191015193812 67 277 1.0 3.0 0.00 0.00 0.00 17 1024.1
20191015193329 67 248 0.0 3.0 0.00 0.00 0.00 19 1024.2
20191015192827 66 302 1.0 3.0 0.00 0.00 0.00 17 1024.3
20191015192323 66 250 1.0 2.0 0.00 0.00 0.00 19 1024.3
20191015191820 66 262 1.0 2.0 0.00 0.00 0.00 18 1024.4
20191015191321 66 264 0.0 1.0 0.00 0.00 0.00 17 1024.5
20191015190818 66 294 0.0 2.0 0.00 0.00 0.00 18 1024.5
20191015190315 65 296 0.0 2.0 0.00 0.00 0.00 21 1024.7
20191015185811 64 271 0.0 2.0 0.00 0.00 0.00 19 1024.7
20191015185327 64 294 1.0 2.0 0.00 0.00 0.00 19 1024.8
20191015184825 64 271 0.0 3.0 0.00 0.00 0.00 18 1024.8
20191015184321 64 288 1.0 3.0 0.00 0.00 0.00 20 1024.8
20191015183822 63 79 0.0 2.0 0.00 0.00 0.00 20 1024.8
20191015183319 63 267 1.0 4.0 0.00 0.00 0.00 21 1024.8
20191015182816 63 248 1.0 4.0 0.00 0.00 0.00 20 1024.8
20191015182313 63 265 0.0 3.0 0.00 0.00 0.00 21 1024.9
20191015181811 62 271 1.0 3.0 0.00 0.00 0.00 23 1025.0
20191015181327 62 262 1.0 2.0 0.00 0.00 0.00 23 1025.0
20191015180825 62 264 1.0 2.0 0.00 0.00 0.00 22 1025.1
20191015180325 62 120 0.0 2.0 0.00 0.00 0.00 22 1025.0
20191015175821 61 285 0.0 1.0 0.00 0.00 0.00 24 1025.1
20191015175318 60 274 0.0 3.0 0.00 0.00 0.00 24 1025.2
20191015174815 59 235 0.0 3.0 0.00 0.00 0.00 25 1025.2
20191015174312 59 280 1.0 3.0 0.00 0.00 0.00 24 1025.2
20191015173829 59 240 0.0 3.0 0.00 0.00 0.00 25 1025.3
20191015173326 58 254 1.0 5.0 0.00 0.00 0.00 25 1025.3
20191015172827 58 250 2.0 5.0 0.00 0.00 0.00 25 1025.3
20191015172324 58 276 0.0 3.0 0.00 0.00 0.00 26 1025.4
20191015171818 58 264 0.0 4.0 0.00 0.00 0.00 28 1025.4
20191015171315 57 302 2.0 4.0 0.00 0.00 0.00 28 1025.3
20191015170812 57 252 1.0 3.0 0.00 0.00 0.00 28 1025.3
20191015170329 56 265 1.0 4.0 0.00 0.00 0.00 28 1025.3
20191015165826 56 284 0.0 4.0 0.00 0.00 0.00 29 1025.3
20191015165327 56 269 1.0 3.0 0.00 0.00 0.00 28 1025.3
20191015164824 55 257 1.0 4.0 0.00 0.00 0.00 28 1025.2
20191015164321 55 253 1.0 2.0 0.00 0.00 0.00 28 1025.3
20191015163818 55 284 1.0 4.0 0.00 0.00 0.00 28 1025.2
20191015163316 55 263 1.0 4.0 0.00 0.00 0.00 28 1025.2
20191015162812 54 292 1.0 3.0 0.00 0.00 0.00 28 1025.2
20191015162329 54 282 1.0 3.0 0.00 0.00 0.00 27 1025.2
20191015161810 54 277 1.0 3.0 0.00 0.00 0.00 28 1025.0
20191015161327 54 264 1.0 3.0 0.00 0.00 0.00 28 1025.0
20191015160824 54 290 1.0 3.0 0.00 0.00 0.00 28 1024.9
20191015160321 53 259 1.0 3.0 0.00 0.00 0.00 27 1024.9
20191015155816 53 262 0.0 1.0 0.00 0.00 0.00 29 1024.9
20191015155314 52 252 0.0 1.0 0.00 0.00 0.00 28 1024.8
20191015154810 51 252 0.0 1.0 0.00 0.00 0.00 28 1024.8
20191015153828 50 304 0.0 0.0 0.00 0.00 0.00 30 1024.6
20191015153326 50 304 0.0 0.0 0.00 0.00 0.00 32 1024.5
20191015152824 50 308 0.0 0.0 0.00 0.00 0.00 32 1024.4
20191015152319 50 308 0.0 0.0 0.00 0.00 0.00 33 1024.4
20191015151817 49 308 0.0 0.0 0.00 0.00 0.00 33 1024.3
20191015151313 49 308 0.0 0.0 0.00 0.00 0.00 32 1024.2
20191015150814 49 110 0.0 0.0 0.00 0.00 0.00 33 1024.0
20191015150311 49 97 0.0 0.0 0.00 0.00 0.00 33 1023.9
20191015145828 47 97 0.0 0.0 0.00 0.00 0.00 32 1023.9
20191015145325 45 98 0.0 0.0 0.00 0.00 0.00 35 1023.9
20191015144822 43 101 0.0 0.0 0.00 0.00 0.00 37 1023.8
20191015144319 42 101 0.0 0.0 0.00 0.00 0.00 38 1023.7
20191015143816 42 103 0.0 0.0 0.00 0.00 0.00 39 1023.5
20191015143317 42 65 0.0 0.0 0.00 0.00 0.00 37 1023.4
20191015142815 42 65 0.0 0.0 0.00 0.00 0.00 37 1023.3
20191015142311 43 65 0.0 1.0 0.00 0.00 0.00 36 1023.3
20191015141828 42 65 0.0 1.0 0.00 0.00 0.00 36 1023.2
20191015141325 42 65 0.0 0.0 0.00 0.00 0.00 36 1023.2
20191015140822 41 65 0.0 0.0 0.00 0.00 0.00 37 1023.2
20191015140319 41 75 0.0 0.0 0.00 0.00 0.00 37 1023.2
20191015135819 41 75 0.0 0.0 0.00 0.00 0.00 37 1023.1
20191015135316 41 75 0.0 0.0 0.00 0.00 0.00 36 1023.2
20191015134813 41 75 0.0 0.0 0.00 0.00 0.00 36 1023.2
20191015134311 41 75 0.0 0.0 0.00 0.00 0.00 37 1023.2
20191015133827 41 75 0.0 0.0 0.00 0.00 0.00 36 1023.3
20191015133323 42 75 0.0 0.0 0.00 0.00 0.00 36 1023.2
20191015132820 42 69 0.0 0.0 0.00 0.00 0.00 35 1023.2
20191015132321 42 70 0.0 0.0 0.00 0.00 0.00 36 1023.2
20191015131818 42 69 0.0 0.0 0.00 0.00 0.00 35 1023.2
20191015131315 43 70 0.0 0.0 0.00 0.00 0.00 35 1023.2
20191015130812 43 69 0.0 0.0 0.00 0.00 0.00 34 1023.2
20191015130329 43 79 0.0 0.0 0.00 0.00 0.00 33 1023.2
20191015125826 43 81 0.0 0.0 0.00 0.00 0.00 33 1023.2
20191015125323 43 84 0.0 0.0 0.00 0.00 0.00 33 1023.3
20191015124824 43 83 0.0 0.0 0.00 0.00 0.00 33 1023.2
20191015124321 43 84 0.0 0.0 0.00 0.00 0.00 34 1023.1
20191015123818 44 83 0.0 1.0 0.00 0.00 0.00 33 1023.2
20191015123315 44 77 0.0 1.0 0.00 0.00 0.00 31 1023.2
20191015122812 44 77 1.0 1.0 0.00 0.00 0.00 31 1023.2
20191015122329 43 77 1.0 1.0 0.00 0.00 0.00 32 1023.2
20191015121810 43 77 0.0 1.0 0.00 0.00 0.00 32 1023.2
20191015121327 44 76 0.0 1.0 0.00 0.00 0.00 31 1023.2
20191015120824 44 77 0.0 2.0 0.00 0.00 0.00 31 1023.1
20191015120321 44 77 1.0 2.0 0.00 0.00 0.00 31 1023.2
20191015115817 43 77 0.0 0.0 0.00 0.00 0.00 32 1023.2
20191015115314 42 76 0.0 0.0 0.00 0.00 0.00 34 1023.2
20191015114811 43 77 0.0 0.0 0.00 0.00 0.00 33 1023.2
20191015114312 43 77 0.0 0.0 0.00 0.00 0.00 33 1023.2
20191015113829 42 77 0.0 0.0 0.00 0.00 0.00 34 1023.2
20191015113325 42 77 0.0 0.0 0.00 0.00 0.00 34 1023.2
20191015112823 42 77 0.0 0.0 0.00 0.00 0.00 35 1023.2
20191015112320 43 77 0.0 0.0 0.00 0.00 0.00 35 1023.3
20191015111817 42 77 0.0 0.0 0.00 0.00 0.00 34 1023.2
20191015111314 42 78 0.0 0.0 0.00 0.00 0.00 34 1023.2
20191015110815 42 77 0.0 0.0 0.00 0.00 0.00 35 1023.1
20191015110311 42 77 0.0 0.0 0.00 0.00 0.00 35 1023.1
20191015105829 42 77 0.0 0.0 0.00 0.00 0.00 35 1023.0
20191015105326 42 78 0.0 0.0 0.00 0.00 0.00 36 1023.0
20191015104822 42 77 0.0 0.0 0.00 0.00 0.00 36 1023.0
20191015104320 43 69 0.0 0.0 0.00 0.00 0.00 34 1023.0
20191015103817 43 69 0.0 0.0 0.00 0.00 0.00 33 1022.9
20191015103317 43 69 0.0 0.0 0.00 0.00 0.00 32 1022.9
20191015102815 43 79 0.0 0.0 0.00 0.00 0.00 32 1022.8
20191015102312 43 79 0.0 0.0 0.00 0.00 0.00 33 1022.9
20191015101828 43 79 0.0 0.0 0.00 0.00 0.00 33 1022.8
20191015101325 43 79 0.0 0.0 0.00 0.00 0.00 34 1022.7
20191015100822 43 85 0.0 0.0 0.00 0.00 0.00 33 1022.7
20191015100319 44 85 0.0 0.0 0.00 0.00 0.00 32 1022.8
20191015095819 44 85 0.0 0.0 0.00 0.00 0.00 32 1022.7
20191015095316 45 83 0.0 0.0 0.00 0.00 0.00 31 1022.7
20191015094813 45 84 0.0 0.0 0.00 0.00 0.00 30 1022.7